STARLINK-31385, 58985

Orbit data source: Space-Track

STARLINK-31385, 58985 is a payload satellite owned by SpaceX/Seattle (US) in LEO that was launched on Thu, 15 Feb 2024 UTC via an FALCON 9 launch vehicle from the Air Force Western Test Range (AFWTR). Payload-class satellites include a variety of spacecraft equipped with specific instruments for various scientific and technological missions. These include communications satellites like Starlink; space stations such as the ISS; scientific satellites like the Hubble; Earth observation satellites from companies like Planet Labs, Umbra, and HawkEye 360; GPS; miniature CubeSats for education and research; and military/defense satellites.

Loading next visibility...
Identifier
58985, 2024-031W
Orbit
LEO
Country
Flag of USUS
Related business
Manufacturer
SpaceX/Seattle
Mission
Operational Commercial Communications
Bus & Motor
STARLINK V2M, Unknown motor
Mass
730 kg wet, ~700 kg dry
Launch date (UTC)
2024-02-15 (2 years ago)
Launch vehicle
FALCON 9
Launch site
Air Force Western Test Range (AFWTR)
Object type
Payload
Rocket body
Debris
Shape & HBR
Box + 2 Pan, 17.7 m
Radar Cross Section
33.884 m², Large (>1 m²)

Expand to show TLE details & history
Last TLE update: 2 days ago

TLE from 2 days ago
0 STARLINK-31385
1 58985U 24031W   26171.29053205  .00002415  00000-0  82606-4 0  9996
2 58985  53.1595 176.4092 0001107 107.5377 252.5746 15.34390207132273
Epoch: 2026-06-20T06:58Z
TLE epoch observation values (Epoch: 2026-06-20T06:58:21.969Z)
Latitude
-0.00005°
Longitude
163.31035°
Altitude
463.86 km
Speed
7.636 km/s
True Right ascension
11h 45m 38s
True Declination
0° 00' 00"
Sunlit
Object was in daylight at epoch
Visualization orbit readout
Latitude
Unknown
Longitude
Unknown
Altitude
Unknown
Speed
Unknown
Apparent Right ascension
Unknown
Apparent Declination
Unknown
Sunlit
N/A
Visualization observer readout
Local Sidereal Time
21:24:39
Azimuth
Unknown
Elevation
Unknown
Doppler factor
Unknown
Orbital elements
Apogee altitude
463.747 km
Perigee altitude
462.232 km
Semi-major axis
6,841.126 km
Eccentricity
0.00011
Inclination
53.1595°
RAAN
176.4092°
Arg. of periapsis
107.5377°
True anomaly
252.5625°
Mean anomaly
252.5746°
Eccentric anomaly
252.56855°
Mean motion
3.83576 °/min
Orbital period
93.85 mins
BSTAR
0.000082606
Loading maneuver chart data...
Computing Atmospheric mass density...
Loading historical data...
Loading historical data...
Loading historical data...
Loading historical data...
Loading historical data...
Loading historical data...
Loading historical data...

Documentation

Showing up to 5 results
|